Home   Weather   Manassas   Past weeks
Flag for USA

Past Weather in Manassas, Virginia, USA — Yesterday and Last 2 Weeks

Now
59 °F

Light rain. Fog.


Feels Like: 58 °F
Forecast: 63 / 54 °F
Wind: 6 mph from Southeast

Location: Manassas Municipal

Current Time: Oct 22, 2019 at 3:51:12 pm

Latest Report: Oct 22, 2019 at 2:56 pm


Visibility: 6 mi

Pressure: 29.82 "Hg

Humidity: 96%

Dew Point: 58 °F

Location of ManassasLocation

Past Weather in Manassas — Graph

°F

Manassas Temperature Yesterday

Maximum temperature yesterday: 67 °F (at 3:56 pm)
Minimum temperature yesterday: 54 °F (at 2:56 am)
Average temperature yesterday: 58 °F

High & Low Weather Summary for the Past Weeks

 TemperatureHumidityPressure
High80 °F (Oct 7, 3:56 pm)100% (Oct 16, 11:34 am)30.31 "Hg (Oct 16, 11:34 am)
Low31 °F (Oct 19, 6:56 am)26% (Oct 14, 5:56 pm)29.56 "Hg (Oct 16, 3:30 pm)
Average57 °F72%30.04 "Hg
* Reported Oct 7 2:56 pm — Oct 22 2:35 pm, Manassas. Weather by CustomWeather, © 2019

Note: Actual official high and low records may vary slightly from our data, if they occured in-between our weather recording intervals... More about our weather records

Advertising

Manassas Weather History for the Previous 24 Hours

Scroll right to see more
 ConditionsComfort  
Time TempWeatherWind HumidityBarometerVisibility
2:35 pm
Tue, Oct 22
59 °FRain. Mostly cloudy.6 mph94%29.81 "Hg7 mi
1:56 pm59 °FRain. Low clouds.10 mph93%29.85 "Hg10 mi
12:56 pm60 °FOvercast.10 mph86%29.89 "Hg10 mi
11:56 am59 °FLow clouds.12 mph90%29.93 "Hg10 mi
10:56 am59 °FLow clouds.10 mph90%29.97 "Hg10 mi
10:15 am57 °FLow clouds.10 mph94%29.97 "Hg10 mi
9:56 am58 °FLow clouds.8 mph93%29.99 "Hg10 mi
8:56 am56 °FFog.10 mph97%30.00 "Hg6 mi
8:36 am55 °FFog.7 mph100%30.00 "Hg3 mi
8:18 am55 °FFog.7 mph100%30.00 "Hg2 mi
7:56 am56 °FFog.7 mph97%30.02 "Hg6 mi
6:56 am56 °FLow clouds.7 mph97%30.02 "Hg7 mi
5:56 am56 °FLow clouds.7 mph93%30.03 "Hg10 mi
4:56 am56 °FLow clouds.8 mph93%30.03 "Hg10 mi
3:56 am56 °FLow clouds.7 mph97%30.03 "Hg10 mi
3:14 am55 °FLow clouds.6 mph94%30.04 "Hg10 mi
2:56 am56 °FOvercast.3 mph93%30.06 "Hg10 mi
1:56 am56 °FOvercast.3 mph90%30.09 "Hg10 mi
12:56 am56 °FOvercast.3 mph90%30.09 "Hg10 mi
12:23 am55 °FMostly cloudy.6 mph94%30.07 "Hg10 mi
11:56 pm
Mon, Oct 21
55 °FPassing clouds.6 mph93%30.10 "Hg10 mi
10:56 pm55 °FClear.7 mph93%30.09 "Hg10 mi
9:56 pm56 °FClear.7 mph90%30.10 "Hg10 mi
8:56 pm57 °FClear.No wind87%30.09 "Hg10 mi
7:56 pm57 °FClear.5 mph83%30.08 "Hg10 mi
6:56 pm59 °FClear.6 mph81%30.07 "Hg10 mi
5:56 pm63 °FSunny.7 mph70%30.06 "Hg10 mi
4:56 pm67 °FSunny.3 mph59%30.05 "Hg10 mi
3:56 pm67 °FSunny.6 mph59%30.06 "Hg10 mi
Weather by CustomWeather, © 2019

See weather overview